This is the latest recevied weather packets stored in our database for station/object 9W2GND-1. If no packets are shown the sender has not sent any weather packets the latest 10 day(s).
| Time | Temp. | Humidity | Pressure | Rain* | Wind** | Luminosity | Snow |
|---|---|---|---|---|---|---|---|
| 1778324929 | 30° C | 72% | 1010.5 hPa | - | - | - | - |
| 1778324029 | 30° C | 71% | 1010.3 hPa | - | - | - | - |
| 1778323128 | 30.56° C | 70% | 1010 hPa | - | - | - | - |
| 1778322228 | 30.56° C | 69% | 1010 hPa | - | - | - | - |
| 1778321328 | 30.56° C | 68% | 1009.6 hPa | - | - | - | - |
| 1778320428 | 30.56° C | 67% | 1009.7 hPa | - | - | - | - |
| 1778319528 | 31.11° C | 66% | 1009.4 hPa | - | - | - | - |
| 1778318628 | 31.67° C | 64% | 1009.3 hPa | - | - | - | - |
| 1778317728 | 31.67° C | 63% | 1009.5 hPa | - | - | - | - |
| 1778316828 | 32.22° C | 63% | 1009.2 hPa | - | - | - | - |
| 1778315928 | 31.67° C | 63% | 1009.3 hPa | - | - | - | - |
| 1778315028 | 32.22° C | 63% | 1009.5 hPa | - | - | - | - |
| 1778314127 | 31.67° C | 65% | 1009.6 hPa | - | - | - | - |
| 1778313227 | 31.67° C | 64% | 1009.9 hPa | - | - | - | - |
| 1778312327 | 32.22° C | 64% | 1010 hPa | - | - | - | - |
| 1778311427 | 32.22° C | 64% | 1010.1 hPa | - | - | - | - |
| 1778310525 | 31.67° C | 65% | 1010.6 hPa | - | - | - | - |
| 1778309625 | 32.22° C | 64% | 1011.1 hPa | - | - | - | - |
| 1778308724 | 32.22° C | 65% | 1011.5 hPa | - | - | - | - |
| 1778308420 | 32.22° C | 65% | 1011.8 hPa | - | - | - | - |
| 1778307824 | 32.22° C | 65% | 1011.8 hPa | - | - | - | - |
| 1778306924 | 32.22° C | 65% | 1012 hPa | - | - | - | - |
| 1778306024 | 32.22° C | 65% | 1012 hPa | - | - | - | - |
| 1778305124 | 31.67° C | 67% | 1012.3 hPa | - | - | - | - |
| 1778304224 | 31.67° C | 68% | 1012.6 hPa | - | - | - | - |
* Rain since midnight (hover to see other rain measurements)
** Current wind speed in m/s (hover to see current wind gust speed)